Kodiak, AK

5:30 AM AKST on November 13, 2019 (GMT -0900)
Kodiak

Weather History for PADQ - October, 2019

Change the Weather History Date:

Monday, October 21, 2019

  Actual Average Record
Temperature  
Mean Temperature 39 °F 39 °F  
Max Temperature 48 °F 45 °F 55 °F (1981)
Min Temperature 30 °F 33 °F 16 °F (1966)
Degree Days  
Heating Degree Days 26 26  
Month to date heating degree days 446 488  
Since 1 July heating degree days 1070 1589  
Cooling Degree Days 0 0  
Month to date cooling degree days 0 0  
Year to date cooling degree days 56 1  
Moisture  
Dew Point 34 °F    
Average Humidity 86    
Maximum Humidity 96    
Minimum Humidity 76    
Precipitation  
Precipitation 0.00 in 0.26 in 1.97 in (1926)
Month to date precipitation 2.19 5.73  
Year to date precipitation 42.66 59.87  
Snow  
Snow 0.00 in 0.00 in 7.30 in (1954)
Month to date snowfall 0.0 0.4  
Snow Depth 0.00 in    
Sea Level Pressure  
Sea Level Pressure 29.67 in    
Wind  
Wind Speed 5 mph (WSW)    
Max Wind Speed 8 mph    
Max Gust Speed 9 mph    
Visibility 10 miles    
Events Rain    
T = Trace of Precipitation, MM = Missing Value Source: NWS Daily Summary

Daily Weather History Graph

Daily Weather History Graph

Search for Another Location

Airport or City:

Astronomy

Oct. 21, 2019 Rise Set
Actual Time 8:58 AM AKDT 6:50 PM AKDT
Civil Twilight 8:17 AM AKDT 7:30 PM AKDT
Nautical Twilight 7:32 AM AKDT 8:15 PM AKDT
Astronomical Twilight 6:47 AM AKDT 9:00 PM AKDT
Moon No Moon Rise 5:09 PM AKDT (10/21)
Length of Visible Light 11h 12m
Length of Day
9h 51m
Waning Gibbous, 47% of the Moon is Illuminated
Oct 21
Waning Gibbous
Oct 27
New
Nov 4
First Quarter
Nov 12
Full
Nov 19
Last Quarter

Hourly Weather History & Observations

Time (AKDT) Temp. Windchill Dew Point Humidity Pressure Visibility Wind Dir Wind Speed Gust Speed Precip Events Conditions
12:53 AM 33.1 °F 26.9 °F 30.0 °F 89% 29.65 in 10.0 mi West 6.9 mph - N/A   Clear
1:53 AM 30.9 °F 25.2 °F 28.0 °F 89% 29.65 in 10.0 mi West 5.8 mph - N/A   Clear
2:53 AM 32.0 °F 25.6 °F 30.0 °F 92% 29.65 in 10.0 mi WNW 6.9 mph - N/A   Clear
3:53 AM 30.9 °F 23.5 °F 28.0 °F 89% 29.65 in 10.0 mi West 8.1 mph - N/A   Clear
4:53 AM 30.9 °F 24.3 °F 28.0 °F 89% 29.65 in 10.0 mi West 6.9 mph - N/A   Clear
5:53 AM 30.0 °F 24.1 °F 28.0 °F 92% 29.66 in 10.0 mi West 5.8 mph - N/A   Clear
6:53 AM 30.0 °F 25.2 °F 28.0 °F 92% 29.67 in 10.0 mi West 4.6 mph - N/A   Clear
7:53 AM 32.0 °F 26.4 °F 28.9 °F 88% 29.66 in 10.0 mi West 5.8 mph - N/A   Clear
8:53 AM 30.0 °F 23.2 °F 28.0 °F 92% 29.67 in 10.0 mi West 6.9 mph - N/A   Clear
9:53 AM 32.0 °F 27.5 °F 30.0 °F 92% 29.68 in 10.0 mi West 4.6 mph - N/A   Clear
10:53 AM 34.0 °F 29.8 °F 32.0 °F 92% 29.68 in 10.0 mi West 4.6 mph - N/A   Clear
11:53 AM 41.0 °F 39.0 °F 36.0 °F 82% 29.68 in 10.0 mi South 3.5 mph - N/A   Scattered Clouds
12:53 PM 43.0 °F 41.3 °F 37.0 °F 80% 29.68 in 10.0 mi East 3.5 mph - N/A   Scattered Clouds
1:53 PM 46.9 °F - 39.0 °F 74% 29.68 in 10.0 mi NE 5.8 mph - N/A   Partly Cloudy
2:53 PM 46.9 °F - 39.0 °F 74% 29.67 in 10.0 mi Calm Calm - N/A   Overcast
3:53 PM 46.9 °F - 39.9 °F 77% 29.67 in 10.0 mi NNE 3.5 mph - N/A   Overcast
4:12 PM 48.0 °F - 39.0 °F 71% 29.66 in 10.0 mi SSE 10.4 mph - N/A   Overcast
4:53 PM 46.9 °F - 41.0 °F 80% 29.67 in 7.0 mi South 3.5 mph - 0.00 in Rain Light Rain
5:50 PM 46.4 °F 44.3 °F 41.0 °F 81% 29.66 in 10.0 mi SE 4.6 mph - 0.00 in   Overcast
5:53 PM 46.9 °F - 41.0 °F 80% 29.66 in 10.0 mi SSE 4.6 mph - 0.00 in   Overcast
6:11 PM 46.0 °F 41.4 °F 41.0 °F 83% 29.65 in 10.0 mi SE 9.2 mph - N/A   Overcast
6:53 PM 45.0 °F 42.6 °F 39.9 °F 82% 29.66 in 10.0 mi SSE 4.6 mph - N/A   Mostly Cloudy
7:53 PM 41.0 °F 39.0 °F 37.9 °F 89% 29.67 in 10.0 mi South 3.5 mph - N/A   Clear
8:53 PM 37.0 °F 34.5 °F 34.0 °F 89% 29.68 in 10.0 mi WSW 3.5 mph - N/A   Clear
9:53 PM 36.0 °F 31.1 °F 33.1 °F 89% 29.68 in 10.0 mi WSW 5.8 mph - N/A   Clear
10:53 PM 34.0 °F 28.8 °F 32.0 °F 92% 29.70 in 10.0 mi West 5.8 mph - N/A   Clear
11:53 PM 33.1 °F 26.9 °F 30.9 °F 92% 29.71 in 10.0 mi West 6.9 mph - N/A   Clear